This is the latest recevied weather packets stored in our database for station/object WA0LM. If no packets are shown the sender has not sent any weather packets the latest 10 day(s).
| Time | Temp. | Humidity | Pressure | Rain* | Wind** | Luminosity | Snow |
|---|---|---|---|---|---|---|---|
| 1777956090 | 4.44° C | 63% | 1005.1 hPa | 0 mm | - | 0 W/m² | - |
| 1777955786 | 4.44° C | 66% | 1005.1 hPa | 0 mm | - | 0 W/m² | - |
| 1777955483 | 5° C | 66% | 1004.9 hPa | 0 mm | - | 0 W/m² | - |
| 1777955178 | 5° C | 62% | 1004.9 hPa | 0 mm | - | 0 W/m² | - |
| 1777954877 | 5° C | 64% | 1005.1 hPa | 0 mm | - | 0 W/m² | - |
| 1777954572 | 5° C | 62% | 1005.2 hPa | 0 mm | - | 0 W/m² | - |
| 1777954270 | 5° C | 66% | 1004.9 hPa | 0 mm | - | 0 W/m² | - |
| 1777953967 | 5° C | 63% | 1005 hPa | 0 mm | - | 0 W/m² | - |
| 1777953664 | 5° C | 62% | 1005.1 hPa | 0 mm | - | 0 W/m² | - |
| 1777953361 | 5.56° C | 66% | 1004.9 hPa | 0 mm | - | 0 W/m² | - |
| 1777953057 | 5.56° C | 63% | 1004.9 hPa | 0 mm | - | 0 W/m² | - |
| 1777952753 | 5.56° C | 62% | 1005 hPa | 0 mm | - | 0 W/m² | - |
| 1777952450 | 5.56° C | 60% | 1004.9 hPa | 0 mm | - | 0 W/m² | - |
| 1777952147 | 6.11° C | 61% | 1004.9 hPa | 0 mm | - | 0 W/m² | - |
| 1777951846 | 6.11° C | 60% | 1004.8 hPa | 0 mm | - | 0 W/m² | - |
| 1777951543 | 6.11° C | 61% | 1004.8 hPa | 0 mm | - | 0 W/m² | - |
| 1777951239 | 6.11° C | 62% | 1004.7 hPa | 0 mm | - | 0 W/m² | - |
| 1777950937 | 6.11° C | 58% | 1004.9 hPa | 0 mm | - | 0 W/m² | - |
| 1777950633 | 6.67° C | 57% | 1005 hPa | 0 mm | - | 0 W/m² | - |
| 1777950330 | 6.67° C | 59% | 1004.7 hPa | 0 mm | - | 0 W/m² | - |
| 1777950026 | 6.67° C | 57% | 1004.7 hPa | 0 mm | - | 0 W/m² | - |
| 1777949722 | 6.67° C | 58% | 1004.5 hPa | 0 mm | - | 0 W/m² | - |
| 1777949422 | 6.67° C | 58% | 1004.7 hPa | 0 mm | - | 0 W/m² | - |
| 1777949118 | 6.67° C | 55% | 1004.5 hPa | 0 mm | - | 0 W/m² | - |
| 1777948815 | 6.67° C | 59% | 1004.5 hPa | 0 mm | - | 0 W/m² | - |
* Rain latest hour (hover to see other rain measurements)
** Current wind speed in m/s (hover to see current wind gust speed)